Погода Столб Остров

Поиск расширенной информации на нашем сайте:

Полезная информация:

Новости сайта



02.01.2020
Опубликован Долгосрочный прогноз погоды по городам России и ближнего зарубежья на январь 2020 года.
Карты: Прогноз на январь и февраль 2020 года, Сравнение прогнозируемой аномалии приземной температуры воздуха на январь 2020 года по разным моделям.




Погода Столб Остров - сегодня

Время (UTC), дата Ветер
(°,м/с) 
Видим.   Явления Облачность Т
(°С)
Тd
(°С)
f(%) Тe
(°С)
Pmin
(гПа)
dP
(гПа)
Po
(мм)
O2
(г/м3)
Тmin Tmax R s Состояние
почвы
18 29.11.20 170 (Ю) 10-11{14}  10 км  слаб. снег  10/0 средняя 
[As op]
-12.8 -15.5 80 -21  1006.5  -1  753  320           
21 29.11.20 180 (Ю) 11-12{14}  10 км  слаб. снег  10/0 средняя 
[As op]
-12.5 -15.2 80 -21  1005  -1.5  752  319           
00 30.11.20 170 (Ю) 10-11{13}  10 км  слаб. снег  10/0 средняя 
[As op]
-12.4 -15.1 80 -20  1002.9  -2.1  750  318  -13.4    24  неравномерный
сухой снег
100% 
03 30.11.20 170 (Ю) 10-11{14}  10 км  слаб. снег  10/0 средняя 
[As op]
-11.3 -14.1 80 -19  1000.9  -2  749  316           
06 30.11.20 180 (Ю) 10{14}  10 км  слаб. снег  10/0 средняя 
[As op]
-10.7 -14.3 75 -18  998.4  -2.4  747  314           
09 30.11.20 170 (Ю) 12-12{14}  10 км  слаб. снег  10/0 средняя 
[As op]
-11.2 -14 80 -19  995.4  -3  745  314           
12 30.11.20 170 (Ю) 14-16{18}  4000 м  слаб. снег  10/0 средняя 
[As op]
-10.6 -12.6 85 -19  993.4  -2  743  313    -10.6     
15 30.11.20 240 (ЮЗ) 12-15{18}  4000 м  слаб. снег  10/0 средняя 
[As op]
-12.3 -15 80 -21  993.4  -0.1  743  315           
18 30.11.20 230 (ЮЗ) 10-12{16}  20000 м  позёмок{снег}  3/0 средняя, верхняя 
[Ac lent|Ci fib]
-8.4 -11.7 77 -15  993.7  0.4  743  310           
21 30.11.20 200 (Ю) 9-10{13}  20000 м  позёмок  10/0 верхняя 
[Ci fib]
-8.4 -11.2 80 -15  993.5  -0.2  743  310           
00 01.12.20 190 (Ю) 10  20000 м  позёмок  10/0 верхняя 
[Ci fib]
-9 -11 85 -16  991.4  -2.1  742  310      0.5     
03 01.12.20 180 (Ю) 11-12{14}  20000 м  позёмок  10/0 верхняя 
[Ci fib]
-11.2 -14 80 -19  988.3  -3.1  739  312           
06 01.12.20 160 (Ю) 13-15{19}  4000 м  слаб. снег  10/0 средняя 
[Ac As]
-13.4 -16.1 80 -23  987.2  -1.1  739  314           
09 01.12.20 220 (ЮЗ) 13-15{16}  4000 м  слаб. снег  10/0 средняя 
[Ac As]
-8.6 -11 83 -17  987.2  739  308           
12 01.12.20 180 (Ю) 13-15{16}  4000 м  слаб. снег  10/0 средняя 
[Ac As]
-10.2 -12.2 85 -19  988.6  1.4  740  311    -8.1  0.7     
15 01.12.20 210 (ЮЗ) 10-15{16}  4000 м  слаб. снег  10/0 средняя 
[As op]
-10.1 -12.9 80 -17  989.1  0.5  740  311           
21 01.12.20 200 (Ю) 7{12}  4000 м  слаб. снег  10/0 средняя 
[As op]
-12.2 -14.9 80 -19  989.9  0.2  741  314           
00 02.12.20 180 (Ю) 8{11}  4000 м  слаб. снег  10/0 средняя 
[As op]
-10.6 -13.4 80 -17  990.1  0.2  741  312  -12.8    24  неравномерный
сухой снег
100% 
03 02.12.20 160 (Ю) 9-10{13}  4000 м  слаб. снег  10/0 средняя 
[As op]
-13 -15.7 80 -21  990.5  0.3  741  315  -13         
06 02.12.20 160 (Ю) 10-11{13}  4000 м  слаб. снег  10/0 средняя 
[As op]
-14.3 -17 80 -23  990.4  -0.1  741  316           
09 02.12.20 170 (Ю) 9-10{13}  4000 м  слаб. снег  10/0 средняя 
[As op]
-15.2 -17.2 85 -23  991.9  1.5  742  318           
12 02.12.20 170 (Ю) 10-11{12}  4000 м  слаб. снег  10/0 средняя 
[As op]
-14.9 -16.9 85 -23  992.2  0.3  742  318    -10.6     
15 02.12.20 170 (Ю) 10-11{13}  4000 м  слаб. снег  10/0 средняя 
[As op]
-14.1 -17.6 75 -22  992.3  0.1  742  317           
18 02.12.20 170 (Ю) 11-12{14}  4000 м  слаб. снег  10/0 средняя 
[As op]
-14.1 -17.6 75 -23  991.9  -0.4  742  317           
21 02.12.20 150 (ЮВ) 10-11{14}  4000 м  слаб. снег  10/0 средняя 
[As op]
-15.6 -18.3 80 -24  991.2  -0.7  741  318           
Время (UTC), дата Ветер
(°,м/с) 
Видим.   Явления Облачность Т
(°С)
Тd
(°С)
f(%) Тe
(°С)
Pmin
(гПа)
dP
(гПа)
Po
(мм)
O2
(г/м3)
Тmin Tmax R s Состояние
почвы

Для получения пояснительной информации подведите курсор к названию столбца.

ПОГОДА Столб Остров - архив

Всё, что Вы хотите узнать о погоде Столб Остров - удобно и подробно!

Выберите нужную дату (начиная с 1 января 2019* года) и нажмите кнопку "Найти".
Будут отображены архивные сводки погоды по пункту Столб Остров, начиная с указанной даты.


Отображать данные в формате CSV (для использования в таблицах Excel)


Внимание! Наш архив погоды предназначен исключительно для личного некоммерческого использования в познавательных целях. Если Вам необходимы официальные справки о состоянии погоды (для производственных, юридических, коммерческих и т.п. целей), обращайтесь в органы Росгидромета.

*Примечание: данная дата относится к архиву по метеостанциям СССР (Россия, СНГ, Балтия).
Архив по метеостанциям Зарубежной Европы и Азии (кроме Китая) хранится 10 дней, по другим регионам земного шара (Китай, Африка, Америка, Австралия, Океания) - 1 день.

Столб Остров - район местоположения метеостанции


Название, широта, долгота, высота метеостанции:
Столб Остров 72.4°ш. 126.5°д. 26 м над ур. моря [Российская Федерация]

Дополнительная информация

В oтличие oт бoльшинства пoгoдных сайтoв мы публикуем пoдрoбную метеoинфoрмацию в детальнoм прoфессиoнальнoм фoрмате.

Характеристики температуры и влажнoсти вoздуха измеряются на высoте 2 м в тени вдали oт зданий и деревьев.
Скoрoсть ветра измеряется на высoте 10 м (на урoвне рoста челoвека скoрoсть ветра ниже в 1.5-2 раза). Если метеoстанция нахoдится в гoрoде или в лесу, тo скoрoсть ветра занижена на 2-4 м/с пo сравнению с oткрытым местoм. Скoрoсть ветра над акватoриями крупных рек и oзёр, а также на вершинах хoлмoв на 2-5 м/с выше, чем в oбычных услoвиях.
Атмoсфернoе давление в разных тoчках местнoсти мoжет значительнo oтличаться oт давления на метеoстанции, в зависимoсти oт услoвий рельефа (при пoдъёме на 10 м давление пoнижается примернo на 1 мм рт.ст.).